This is the latest recevied weather packets stored in our database for station/object SP5FLS-15. If no packets are shown the sender has not sent any weather packets the latest 10 day(s).
| Time | Temp. | Humidity | Pressure | Rain* | Wind** | Luminosity | Snow |
|---|---|---|---|---|---|---|---|
| 1777946702 | 10° C | 76% | 1008 hPa | - | - | - | - |
| 1777946402 | 10° C | 77% | 1007.8 hPa | - | - | - | - |
| 1777946102 | 10° C | 77% | 1008.3 hPa | - | - | - | - |
| 1777945802 | 10° C | 75% | 1007.9 hPa | - | - | - | - |
| 1777945502 | 10° C | 76% | 1008 hPa | - | - | - | - |
| 1777945202 | 10° C | 76% | 1008.1 hPa | - | - | - | - |
| 1777944902 | 10° C | 79% | 1008.1 hPa | - | - | - | - |
| 1777944602 | 10.56° C | 81% | 1008.1 hPa | - | - | - | - |
| 1777944302 | 10° C | 83% | 1008.3 hPa | - | - | - | - |
| 1777944002 | 10° C | 83% | 1008.2 hPa | - | - | - | - |
| 1777943702 | 10.56° C | 84% | 1008.3 hPa | - | - | - | - |
| 1777943402 | 10° C | 85% | 1008.3 hPa | - | - | - | - |
| 1777943101 | 10.56° C | 83% | 1008.4 hPa | - | - | - | - |
| 1777942802 | 10.56° C | 85% | 1008.2 hPa | - | - | - | - |
| 1777942502 | 10.56° C | 87% | 1008.5 hPa | - | - | - | - |
| 1777942202 | 10.56° C | 86% | 1008.5 hPa | - | - | - | - |
| 1777941902 | 10.56° C | 89% | 1008.7 hPa | - | - | - | - |
| 1777941602 | 10.56° C | 90% | 1008.4 hPa | - | - | - | - |
| 1777941302 | 10.56° C | 92% | 1008.5 hPa | - | - | - | - |
| 1777941002 | 10.56° C | 94% | 1008.5 hPa | - | - | - | - |
| 1777940702 | 11.11° C | 96% | 1008.6 hPa | - | - | - | - |
| 1777940402 | 10.56° C | 96% | 1008.4 hPa | - | - | - | - |
| 1777940102 | 10.56° C | 95% | 1008.6 hPa | - | - | - | - |
| 1777939802 | 10.56° C | 96% | 1008.4 hPa | - | - | - | - |
| 1777939502 | 10.56° C | 98% | 1008.6 hPa | - | - | - | - |
* Rain since midnight (hover to see other rain measurements)
** Current wind speed in m/s (hover to see current wind gust speed)